Weather in Merlino

Russia / Smolensk Oblast     54°36′04″N   31°35′14″E
temp.,
°C
wind,
m/s
gust,
m/s
humid.,
%
clouds,
%
prec.,
mm/h
press.,
hPa
HPBL,
m
24 july, sat
sat2400:00+14wnw23920 0.1 101241
03:00+12nne119211 0.1 101311
06:00+13ssw118955 0.0 101313
09:00+17ne227536 0.0 1014331
12:00+21ene32503 0.0 10151323
15:00+22ne224499 0.1 10151975
18:00+21e114714 0.0 1016511
21:00+16se226667 0.0 101714
25 july, sun
sun2500:00+16se3670100 0.0 1018141
03:00+15sse3665100 0.0 1019138
06:00+15sse2468100 0.0 1020102
09:00+18sse236387 0.0 1020266
12:00+24se32414 0.0 10201893
15:00+25sse323721 0.0 10202331
18:00+24se324339 0.0 10201275
21:00+20se365696 0.0 1021115
26 july, mon
mon2600:00+17se366997 0.0 102292
03:00+18s2470100 0.0 102271
06:00+17sse357982 0.0 1023113
09:00+20se346866 0.0 1023344
12:00+25sse455245 0.0 10231290
15:00+25sse3449100 0.0 10221272
18:00+23s356181 0.0 1022280
21:00+18se347715 0.2 102250
27 july, tue
tue2700:00+19se3679100 0.0 1023113
03:00+16s369127 1.0 1023103
06:00+16sse34915 0.3 102374
09:00+21sse46695 0.3 1023389
12:00+26sse56470 0.0 10221270
15:00+28s574024 0.0 10202450
18:00+27sse574545 0.0 10191327
21:00+23sse5115498 0.0 1019395
28 july, wed
wed2800:00+22sse51356100 0.0 1019420
03:00+21sse61556100 0.0 1017483
06:00+19sse61460100 0.1 1016486
09:00+20sse61569100 0.6 1014599
12:00+22sse71457100 0.0 1012759
15:00+23s497369 1.1 1010500
18:00+23wnw238281 3.5 100768
21:00+20ssw3494100 10.5 100793